Погода в Туде

Узбекистан     40°22′22″N   71°18′04″E
темп.,
°C
ветер,
м/с
пор.,
м/с
влажн.,
%
обл.,
%
осадки,
мм/ч
давл.,
гПа
погр.,
м
27 февраля, сб
сб2723:00−4вюв22360 0.0 103149
02:00−5вюв124251 0.0 102924
05:00−5вюв114168 0.0 103023
08:00−3св1237100 0.0 1029139
11:00−1св2131100 0.0 1028605
14:00+1св2125100 0.0 1028776
17:00+1всв3326100 0.1 1031572
20:00−1в233867 0.0 103543
28 февраля, вс
вс2823:00−2в224634 0.0 103623
02:00−4всв11580 0.0 103421
05:00−4юв12610 0.0 103221
08:00−2юв22480 0.0 1030135
11:00+3всв34340 0.0 1025716
14:00+5всв33290 0.0 1022895
17:00+6в33270 0.0 1022821
20:00+2юв11400 0.0 102522
1 марта, пн
пн123:00+1вюв22460 0.0 102622
02:00−1юв11480 0.0 102522
05:00−1вюв114716 0.0 102522
08:00+1в124069 0.0 102525
11:00+6всв233170 0.0 1022420
14:00+9всв322449 0.0 1021672
17:00+10всв222324 0.0 1021651
20:00+5всв11350 0.0 102522
2 марта, вт
вт223:00+3в12360 0.0 102622
02:00+2всв113864 0.0 102622
05:00+2в114082 0.0 102522
08:00+4всв1138100 0.0 102522
11:00+8св2229100 0.0 1023280
14:00+11св2224100 0.0 1021579
17:00+11ссв2125100 0.0 1020435
20:00+7св1234100 0.0 102322
3 марта, ср
ср323:00+6юв0138100 0.0 102322
02:00+5зсз0040100 0.0 102222
05:00+4з1142100 0.0 102122
08:00+6зсз113990 0.0 102122
11:00+10ссв212691 0.0 1019824
14:00+12св112484 0.0 10171280
17:00+12зсз232493 0.0 10181434
20:00+9з2256100 0.0 102041